Home   Weather   Rovaniemi   Past weeks

Flag for Finland Past Weather in Rovaniemi, Finland — Yesterday and Last 2 Weeks

Now
18 °F

Clear.


Feels Like: 7 °F
Forecast: 19 / 22 °F
Wind: 8 mph from Northwest

Location: Rovaniemi Airport

Current Time: Jan 21, 2017 at 12:36:49 am

Latest Report: Jan 20, 2017 at 11:50 pm


Visibility: 10 mi

Pressure: 29.65 "Hg

Humidity: 79%

Dew Point: 12 °F

Location of RovaniemiLocation

Past Weather in Rovaniemi — Graph

°F

Rovaniemi Temperature Yesterday

Maximum temperature yesterday: 21 °F (at 12:20 am)
Minimum temperature yesterday: 14 °F (at 7:20 am)
Average temperature yesterday: 17 °F

High & Low Weather Summary for the Past Weeks

 TemperatureHumidityPressure
High36 °F (Jan 19, 12:20 am)100% (Jan 7, 10:50 am)30.39 "Hg (Jan 7, 10:50 am)
Low-15 °F (Jan 5, 11:20 pm)46% (Jan 19, 7:50 pm)29.03 "Hg (Jan 11, 3:20 pm)
Average20 °F90%29.54 "Hg
* Reported Jan 5 11:20 pm — Jan 20 11:20 pm, Rovaniemi, Weather by CustomWeather, © 2017

Note: Actual official high and low records may vary slightly from our data, if they occured in-between our weather recording intervals... More about our weather records

Advertising

Rovaniemi Weather History for the Previous 24 Hours

Scroll right to see more
 ConditionsComfort  
Time TempWeatherWind HumidityBarometerVisibility
11:20 pm
Fri, Jan 20
16 °FClear.8 mph79%29.65 "Hg10 mi
10:50 pm19 °FClear.13 mph73%29.65 "Hg10 mi
10:20 pm18 °FClear.14 mph79%29.62 "Hg10 mi
9:50 pm16 °FClear.9 mph79%29.62 "Hg10 mi
9:20 pm14 °FPassing clouds.5 mph85%29.62 "HgN/A
8:50 pm14 °FClear.10 mph85%29.62 "Hg10 mi
8:20 pm14 °FClear.12 mph85%29.62 "Hg10 mi
7:50 pm14 °FClear.15 mph85%29.62 "Hg10 mi
7:20 pm16 °FClear.9 mph79%29.62 "Hg10 mi
6:50 pm14 °FClear.8 mph85%29.62 "Hg10 mi
6:20 pm16 °FClear.13 mph79%29.59 "Hg10 mi
5:50 pm14 °FClear.12 mph85%29.59 "Hg10 mi
5:20 pm16 °FClear.9 mph86%29.59 "Hg10 mi
4:50 pm18 °FClear.13 mph79%29.59 "Hg10 mi
4:20 pm16 °FClear.9 mph86%29.56 "Hg10 mi
3:50 pm18 °FClear.14 mph79%29.56 "Hg10 mi
3:20 pm18 °FClear.14 mph79%29.56 "Hg10 mi
2:50 pm18 °FSunny.12 mph79%29.56 "Hg10 mi
2:20 pm19 °FSunny.12 mph79%29.56 "Hg10 mi
1:50 pm21 °FSunny.15 mph74%29.56 "Hg10 mi
1:20 pm19 °FSunny.20 mph79%29.56 "Hg10 mi
12:50 pm19 °FSunny.20 mph79%29.56 "Hg10 mi
12:20 pm19 °FSunny.20 mph73%29.56 "Hg10 mi
11:50 am18 °FSunny.21 mph79%29.56 "Hg10 mi
11:20 am18 °FSunny.20 mph79%29.56 "Hg10 mi
10:50 am16 °FSunny.14 mph79%29.53 "Hg10 mi
10:20 am16 °FSunny.16 mph79%29.56 "Hg10 mi
9:50 am18 °FClear.20 mph79%29.53 "Hg10 mi
9:20 am16 °FClear.17 mph79%29.56 "Hg10 mi
8:50 am14 °FClear.18 mph79%29.56 "Hg10 mi
8:20 am16 °FClear.17 mph73%29.56 "Hg10 mi
7:50 am16 °FClear.21 mph73%29.56 "Hg10 mi
7:20 am14 °FClear.20 mph79%29.56 "Hg10 mi
6:50 am16 °FClear.20 mph73%29.59 "Hg10 mi
6:20 am16 °FClear.20 mph73%29.59 "Hg10 mi
5:50 am16 °FClear.17 mph73%29.59 "Hg10 mi
5:20 am16 °FClear.16 mph73%29.59 "Hg10 mi
4:50 am16 °FClear.16 mph73%29.59 "Hg10 mi
4:20 am18 °FClear.13 mph68%29.59 "Hg10 mi
3:50 am18 °FClear.18 mph68%29.59 "Hg10 mi
3:20 am18 °FClear.15 mph68%29.59 "Hg10 mi
2:50 am18 °FClear.15 mph68%29.59 "Hg10 mi
1:50 am18 °FClear.15 mph68%29.62 "Hg10 mi
1:20 am18 °FPassing clouds.8 mph62%29.62 "HgN/A
12:50 am19 °FClear.10 mph58%29.59 "Hg10 mi
12:20 am21 °FClear.14 mph58%29.59 "Hg10 mi
Weather by CustomWeather, © 2017

See weather overviewHow to use our weather pages